• In Österreich
  • Länderverzeichnis
  • Für 7 Tage
  • Wassertemperatur
  • Satellitenkarten
  • Wetterkarte
  • News
  • Widgets
  • user-avatar
    Anmelden

    Stündliche Wetter Miechów

    Heute, 20 Juli, Freitag

    Zeit Temperatur Niederschläge Wind Luftdruck Luftfeuchtigkeit
    00:00 +18°C° 0 mm 4 m/S 732 mmHg 95%
    01:00 +18°C° 0 mm 3 m/S 732 mmHg 95%
    02:00 +18°C° 0 mm 3 m/S 732 mmHg 95%
    03:00 +18°C° 0 mm 3 m/S 732 mmHg 96%
    04:00 +18°C° 0 mm 3 m/S 732 mmHg 96%
    05:00 +18°C° 0 mm 4 m/S 732 mmHg 95%
    06:00 +18°C° 0 mm 4 m/S 732 mmHg 93%
    07:00 +19°C° 0 mm 4 m/S 732 mmHg 92%
    08:00 +20°C° 0,1 mm 4 m/S 732 mmHg 86%
    09:00 +21°C° 0,1 mm 4 m/S 732 mmHg 81%
    10:00 +22°C° 0,1 mm 4 m/S 732 mmHg 75%
    11:00 +23°C° 0,1 mm 4 m/S 732 mmHg 70%
    12:00 +25°C° 0,1 mm 4 m/S 732 mmHg 64%
    13:00 +26°C° 0 mm 4 m/S 732 mmHg 59%
    14:00 +26°C° 0 mm 4 m/S 732 mmHg 59%
    15:00 +26°C° 0 mm 4 m/S 732 mmHg 58%
    16:00 +26°C° 0 mm 4 m/S 732 mmHg 58%
    17:00 +25°C° 0 mm 4 m/S 732 mmHg 63%
    18:00 +24°C° 0 mm 3 m/S 732 mmHg 69%
    19:00 +21°C° 0 mm 3 m/S 732 mmHg 74%
    20:00 +20°C° 0 mm 2 m/S 732 mmHg 77%
    21:00 +19°C° 0 mm 2 m/S 732 mmHg 79%
    22:00 +18°C° 0 mm 2 m/S 732 mmHg 81%
    23:00 +17°C° 0 mm 2 m/S 732 mmHg 81%

    Morgen, 21 Juli, Samstag

    Zeit Temperatur Niederschläge Wind Luftdruck Luftfeuchtigkeit
    00:00 +17°C° 0 mm 2 m/S 732 mmHg 81%
    01:00 +16°C° 0 mm 2 m/S 732 mmHg 81%
    02:00 +16°C° 0 mm 2 m/S 732 mmHg 82%
    03:00 +15°C° 0 mm 2 m/S 732 mmHg 82%
    04:00 +15°C° 0 mm 2 m/S 732 mmHg 82%
    05:00 +16°C° 0 mm 2 m/S 732 mmHg 78%
    06:00 +18°C° 0 mm 2 m/S 732 mmHg 74%
    07:00 +20°C° 0 mm 2 m/S 732 mmHg 70%
    08:00 +21°C° 0 mm 2 m/S 732 mmHg 64%
    09:00 +24°C° 0 mm 2 m/S 732 mmHg 58%
    10:00 +25°C° 0 mm 2 m/S 732 mmHg 52%
    11:00 +26°C° 0 mm 2 m/S 732 mmHg 50%
    12:00 +26°C° 0 mm 2 m/S 732 mmHg 48%
    13:00 +27°C° 0 mm 2 m/S 732 mmHg 46%
    14:00 +27°C° 0 mm 2 m/S 732 mmHg 46%
    15:00 +27°C° 0 mm 2 m/S 732 mmHg 46%
    16:00 +27°C° 0 mm 2 m/S 731 mmHg 46%
    17:00 +26°C° 0 mm 2 m/S 731 mmHg 52%
    18:00 +24°C° 0 mm 1 m/S 731 mmHg 58%
    19:00 +23°C° 0 mm 1 m/S 731 mmHg 63%
    20:00 +22°C° 0 mm 1 m/S 731 mmHg 67%
    21:00 +21°C° 0 mm 1 m/S 731 mmHg 70%
    22:00 +19°C° 0 mm 1 m/S 731 mmHg 73%
    23:00 +19°C° 0 mm 1 m/S 731 mmHg 76%

    übermorgen, 22 Juli, Sonntag

    Zeit Temperatur Niederschläge Wind Luftdruck Luftfeuchtigkeit
    00:00 +18°C° 0 mm 1 m/S 731 mmHg 79%
    01:00 +18°C° 0 mm 1 m/S 731 mmHg 83%
    02:00 +18°C° 0 mm 1 m/S 731 mmHg 84%
    03:00 +16°C° 0 mm 1 m/S 731 mmHg 85%
    04:00 +16°C° 0 mm 1 m/S 731 mmHg 87%
    05:00 +19°C° 0 mm 1 m/S 731 mmHg 82%
    06:00 +20°C° 0 mm 1 m/S 731 mmHg 76%
    07:00 +22°C° 0 mm 1 m/S 731 mmHg 71%
    08:00 +24°C° 0 mm 1 m/S 731 mmHg 65%
    09:00 +25°C° 0 mm 2 m/S 731 mmHg 59%
    10:00 +26°C° 0 mm 2 m/S 731 mmHg 53%
    11:00 +27°C° 0 mm 2 m/S 731 mmHg 51%
    12:00 +27°C° 0 mm 2 m/S 731 mmHg 49%
    13:00 +28°C° 0 mm 2 m/S 730 mmHg 46%
    14:00 +28°C° 0 mm 2 m/S 730 mmHg 46%
    15:00 +28°C° 0 mm 2 m/S 730 mmHg 46%
    16:00 +28°C° 0 mm 2 m/S 730 mmHg 46%
    17:00 +27°C° 0 mm 2 m/S 730 mmHg 52%
    18:00 +25°C° 0 mm 2 m/S 730 mmHg 58%
    19:00 +24°C° 0 mm 2 m/S 730 mmHg 64%
    20:00 +23°C° 0 mm 1 m/S 730 mmHg 67%
    21:00 +21°C° 0 mm 1 m/S 730 mmHg 69%
    22:00 +20°C° 0 mm 1 m/S 730 mmHg 72%
    23:00 +20°C° 0 mm 1 m/S 730 mmHg 73%

    23 Juli, Montag

    Zeit Temperatur Niederschläge Wind Luftdruck Luftfeuchtigkeit
    00:00 +19°C° 0 mm 1 m/S 730 mmHg 75%
    01:00 +19°C° 0 mm 1 m/S 730 mmHg 77%
    02:00 +19°C° 0 mm 1 m/S 730 mmHg 78%
    03:00 +18°C° 0 mm 1 m/S 730 mmHg 79%
    04:00 +18°C° 0 mm 1 m/S 730 mmHg 80%
    05:00 +19°C° 0 mm 1 m/S 730 mmHg 76%
    06:00 +21°C° 0 mm 1 m/S 730 mmHg 72%
    07:00 +22°C° 0 mm 1 m/S 731 mmHg 68%
    08:00 +24°C° 0,1 mm 1 m/S 731 mmHg 63%
    09:00 +25°C° 0,1 mm 2 m/S 731 mmHg 58%
    10:00 +26°C° 0,1 mm 2 m/S 731 mmHg 53%
    11:00 +27°C° 0 mm 2 m/S 731 mmHg 52%
    12:00 +27°C° 0 mm 3 m/S 730 mmHg 51%
    13:00 +27°C° 0 mm 3 m/S 730 mmHg 51%
    14:00 +27°C° 0,1 mm 3 m/S 730 mmHg 52%
    15:00 +27°C° 0,1 mm 3 m/S 730 mmHg 54%
    16:00 +27°C° 0,1 mm 4 m/S 730 mmHg 56%
    17:00 +26°C° 0,3 mm 3 m/S 730 mmHg 63%
    18:00 +24°C° 0,3 mm 3 m/S 730 mmHg 70%
    19:00 +22°C° 0,3 mm 3 m/S 731 mmHg 77%
    20:00 +21°C° 0 mm 3 m/S 731 mmHg 79%
    21:00 +20°C° 0 mm 2 m/S 731 mmHg 82%
    22:00 +19°C° 0 mm 2 m/S 731 mmHg 84%
    23:00 +18°C° 0 mm 2 m/S 731 mmHg 85%

    24 Juli, Dienstag

    Zeit Temperatur Niederschläge Wind Luftdruck Luftfeuchtigkeit
    00:00 +18°C° 0 mm 2 m/S 731 mmHg 86%
    01:00 +17°C° 0 mm 2 m/S 731 mmHg 87%
    02:00 +17°C° 0 mm 2 m/S 731 mmHg 88%
    03:00 +16°C° 0 mm 2 m/S 731 mmHg 89%
    04:00 +16°C° 0 mm 2 m/S 731 mmHg 91%
    05:00 +18°C° 0 mm 2 m/S 732 mmHg 86%
    06:00 +19°C° 0 mm 2 m/S 732 mmHg 82%
    07:00 +21°C° 0 mm 2 m/S 732 mmHg 77%
    08:00 +23°C° 0,4 mm 2 m/S 732 mmHg 72%
    09:00 +24°C° 0,4 mm 3 m/S 732 mmHg 67%
    10:00 +25°C° 0,4 mm 3 m/S 732 mmHg 61%
    11:00 +26°C° 0,6 mm 3 m/S 732 mmHg 60%
    12:00 +26°C° 0,6 mm 3 m/S 731 mmHg 59%
    13:00 +26°C° 0,6 mm 3 m/S 731 mmHg 58%
    14:00 +26°C° 0,3 mm 3 m/S 731 mmHg 58%
    15:00 +26°C° 0,3 mm 3 m/S 731 mmHg 57%
    16:00 +26°C° 0,3 mm 3 m/S 731 mmHg 57%
    17:00 +25°C° 0,3 mm 3 m/S 731 mmHg 63%
    18:00 +24°C° 0,3 mm 2 m/S 731 mmHg 69%
    19:00 +21°C° 0,3 mm 2 m/S 731 mmHg 75%
    20:00 +20°C° 0,1 mm 2 m/S 731 mmHg 78%
    21:00 +19°C° 0,1 mm 2 m/S 731 mmHg 81%
    22:00 +18°C° 0,1 mm 2 m/S 731 mmHg 85%
    23:00 +18°C° 0 mm 2 m/S 731 mmHg 87%

    25 Juli, Mittwoch

    Zeit Temperatur Niederschläge Wind Luftdruck Luftfeuchtigkeit
    00:00 +17°C° 0 mm 2 m/S 731 mmHg 89%
    01:00 +17°C° 0 mm 2 m/S 731 mmHg 91%
    02:00 +17°C° 0 mm 2 m/S 731 mmHg 92%
    03:00 +16°C° 0 mm 2 m/S 731 mmHg 93%
    04:00 +16°C° 0 mm 2 m/S 731 mmHg 94%
    05:00 +17°C° 0 mm 2 m/S 731 mmHg 90%
    06:00 +18°C° 0 mm 2 m/S 732 mmHg 87%
    07:00 +20°C° 0 mm 2 m/S 732 mmHg 84%
    08:00 +21°C° 0,2 mm 3 m/S 732 mmHg 80%
    09:00 +22°C° 0,2 mm 3 m/S 732 mmHg 77%
    10:00 +23°C° 0,2 mm 4 m/S 732 mmHg 73%
    11:00 +23°C° 0,8 mm 4 m/S 732 mmHg 73%
    12:00 +25°C° 0,8 mm 4 m/S 731 mmHg 73%
    13:00 +25°C° 0,8 mm 4 m/S 731 mmHg 73%
    14:00 +25°C° 0,9 mm 4 m/S 731 mmHg 72%
    15:00 +25°C° 0,9 mm 3 m/S 731 mmHg 72%
    16:00 +26°C° 0,9 mm 3 m/S 731 mmHg 72%
    17:00 +25°C° 1,3 mm 3 m/S 731 mmHg 76%
    18:00 +24°C° 1,3 mm 3 m/S 731 mmHg 79%
    19:00 +23°C° 1,3 mm 2 m/S 731 mmHg 83%
    20:00 +21°C° 2,3 mm 2 m/S 731 mmHg 86%
    21:00 +21°C° 2,3 mm 2 m/S 731 mmHg 89%
    22:00 +20°C° 2,3 mm 2 m/S 731 mmHg 91%
    23:00 +20°C° 0,6 mm 2 m/S 731 mmHg 92%
    Mehr zeigen